GFSFLT2_sfc_thetae_132.txt.gz
Theta_e
353 356 363 363 362 362 361 360 360 360 360 360 361 361 361 361 361 359 359 357 357 355 354 354 354 355 354 353 354 354 353 354
352 357 362 363 362 362 361 360 360 359 359 359 360 361 361 361 360 359 358 357 357 356 355 355 354 355 355 354 354 353 352 352
354 358 360 363 362 361 361 360 360 359 359 359 360 360 360 359 359 359 358 357 356 357 357 356 355 354 353 352 352 351 351 350
354 356 358 360 361 361 360 360 359 358 358 359 359 358 358 358 358 358 357 356 355 355 356 357 356 354 353 352 352 351 351 350
351 354 355 356 358 357 357 360 359 358 359 358 358 358 357 357 357 357 354 355 355 354 354 355 355 354 353 352 351 351 352 351
348 351 353 354 355 355 357 358 359 359 359 358 358 358 354 349 351 353 353 355 355 354 354 354 354 354 353 352 352 352 352 343
342 346 349 352 352 353 356 356 355 355 355 354 353 351 348 345 346 350 352 354 355 354 353 352 352 352 352 342 339 343 341 340
342 344 345 345 345 350 352 353 353 354 353 350 349 348 344 343 344 345 343 345 346 352 345 347 345 344 340 337 334 329 328 335
339 340 342 342 341 342 348 348 346 348 345 343 344 345 341 337 337 339 339 341 343 343 341 338 337 336 337 336 332 329 328 332
338 339 339 340 339 336 342 339 338 339 340 341 340 343 340 337 336 338 338 341 341 340 340 337 335 335 334 334 333 333 333 333
337 337 339 340 339 340 338 335 337 337 337 337 339 342 342 336 337 338 338 341 339 340 339 337 334 336 336 338 338 339 339 341
338 340 339 343 341 343 339 337 338 339 339 338 339 342 343 338 336 338 340 339 342 341 340 342 342 341 340 343 340 341 344 344
339 341 343 344 337 338 345 342 340 342 340 341 341 341 345 343 341 340 345 344 344 344 342 338 338 337 334 334 340 342 343 343
338 339 341 342 341 338 339 344 346 345 344 344 345 344 345 346 348 347 349 346 345 339 336 335 331 332 327 331 339 339 337 340
335 338 338 343 342 342 335 338 349 349 349 347 348 348 346 346 348 349 348 346 344 337 335 334 330 327 326 325 334 339 334 333
329 335 337 337 336 338 333 338 343 347 347 351 350 353 352 348 349 350 349 346 342 336 335 335 328 325 327 333 331 326 325 325
328 329 331 332 332 330 335 339 341 348 347 350 351 351 353 353 353 351 346 346 341 340 339 336 335 335 334 333 326 321 317 318
327 328 330 331 330 331 337 342 344 349 346 347 346 348 349 353 352 351 345 344 343 340 339 339 339 336 329 328 326 320 312 311
326 330 329 330 331 332 336 339 345 347 345 348 348 349 348 350 350 350 346 344 342 341 338 337 341 335 327 324 322 324 320 317

GFSFLT2_sfc_thetae_138.txt.gz
Theta_e
353 353 360 362 361 360 360 359 358 358 358 358 358 359 359 359 359 360 360 358 357 354 353 353 354 354 354 353 354 353 352 352
352 353 358 361 361 360 360 359 359 358 358 359 359 359 359 359 359 358 357 357 356 355 353 353 353 354 353 353 352 351 351 351
351 355 356 361 361 360 359 359 359 358 358 359 359 359 360 359 358 357 356 356 356 356 354 353 353 352 351 351 351 351 350 349
354 355 356 356 358 360 359 358 358 358 358 358 358 359 359 359 357 356 355 355 356 356 356 354 353 352 351 350 350 351 351 349
354 353 353 354 355 354 355 359 358 358 358 357 358 358 358 358 357 356 353 354 354 354 355 355 353 352 351 350 350 350 350 349
351 351 351 352 353 353 353 355 358 357 358 358 357 357 354 351 352 353 352 353 354 353 353 353 353 353 352 351 351 351 350 345
345 349 348 350 350 353 355 353 352 353 353 351 351 351 348 347 347 350 351 353 354 353 352 352 352 352 351 345 342 341 334 332
345 346 348 348 349 349 352 350 352 351 350 350 349 348 346 345 346 347 346 346 347 350 346 348 345 344 343 340 338 336 333 330
342 345 347 346 346 348 351 348 349 350 348 348 349 347 343 342 340 342 341 341 340 342 343 342 341 340 338 338 338 336 334 332
336 339 343 345 347 347 346 346 348 348 348 347 346 346 344 340 339 339 339 339 339 340 341 342 341 339 338 337 336 336 336 336
337 338 338 341 341 341 345 343 345 347 347 346 345 346 345 342 339 336 337 338 338 340 342 341 341 340 339 338 339 340 341 342
338 340 339 339 339 340 341 342 342 343 344 343 344 344 345 343 339 337 336 337 339 341 341 341 341 341 339 342 343 344 344 344
339 339 340 341 340 339 339 339 339 340 340 341 340 340 343 342 339 336 335 336 340 342 342 341 341 341 341 340 339 342 344 345
337 339 340 341 340 341 341 340 339 338 339 339 339 338 339 341 341 337 336 338 341 343 343 342 341 340 338 337 337 338 342 341
334 338 339 341 340 341 343 341 343 342 341 342 339 340 341 341 343 341 341 340 344 344 342 340 339 335 335 334 332 334 337 340
334 335 336 337 339 340 338 337 339 342 344 342 343 344 344 343 345 343 344 343 344 342 342 340 337 335 333 332 331 335 333 331
331 333 335 336 338 340 338 338 341 343 346 348 346 346 347 345 344 343 343 343 343 342 339 338 335 335 333 332 334 330 326 327
329 331 334 335 336 338 335 335 339 344 346 344 347 349 347 347 346 345 343 343 343 342 340 338 337 335 334 334 334 330 321 318
331 331 330 333 332 334 332 333 333 334 335 341 344 345 349 352 350 347 346 345 344 344 342 339 339 338 335 333 330 331 324 321

GFSFLT2_sfc_thetae_141.txt.gz
Theta_e
354 356 362 362 361 361 360 359 359 359 359 359 360 360 360 360 360 360 360 358 357 354 353 354 354 354 354 354 354 351 349 350
354 355 359 361 361 361 360 359 358 358 358 358 359 359 358 359 359 359 358 357 356 354 353 353 354 353 352 352 351 348 348 348
354 357 358 361 360 359 360 359 358 358 358 358 359 359 358 358 358 357 356 356 355 355 354 353 353 352 352 351 349 348 346 348
355 356 356 357 359 360 359 358 358 358 358 358 359 359 358 358 357 355 355 354 354 355 354 353 351 351 350 349 348 348 348 348
354 355 355 356 354 355 356 359 358 358 358 358 358 358 358 358 357 355 352 354 353 353 354 353 352 352 350 350 350 349 348 349
352 353 354 354 356 355 355 357 357 357 357 357 357 357 355 354 355 354 353 352 352 351 352 353 353 353 351 351 350 349 349 343
349 352 354 355 355 355 353 356 355 354 353 353 353 354 352 353 354 351 352 352 353 352 353 352 352 351 348 343 342 343 337 336
350 352 353 355 357 356 354 354 353 353 353 354 355 356 354 352 352 351 350 350 351 351 349 347 347 345 343 343 340 340 339 339
348 350 353 355 356 357 356 354 354 352 352 351 353 356 354 351 350 349 348 348 349 347 348 348 346 349 348 346 343 341 343 344
346 348 352 354 354 356 357 355 355 354 353 353 353 354 353 350 349 348 348 347 346 346 345 345 348 350 349 349 346 343 343 346
349 349 350 352 354 353 354 356 355 355 355 354 352 352 352 350 350 347 347 345 345 346 345 346 349 350 350 350 349 348 349 351
349 352 351 352 352 352 354 355 354 354 353 352 352 354 354 353 353 351 346 344 344 347 350 350 350 350 350 351 351 352 353 354
349 349 352 350 351 352 355 354 352 350 350 350 352 353 353 354 354 351 347 344 344 346 348 349 350 349 349 350 351 350 350 352
348 349 349 350 349 350 351 349 349 348 348 348 349 348 351 352 351 350 346 345 347 344 347 348 349 350 349 350 350 350 348 349
346 349 350 349 350 350 348 347 347 345 345 345 345 345 348 348 347 348 347 347 347 344 345 346 349 352 348 348 346 343 345 346
341 346 348 349 350 347 346 344 344 345 346 345 346 348 348 347 347 350 348 348 349 347 349 350 349 348 348 343 342 343 343 343
339 341 345 347 349 348 348 348 349 347 349 350 351 352 351 350 351 350 351 350 351 349 349 347 348 343 340 345 342 342 332 336
339 341 341 344 348 348 349 346 348 352 355 352 354 354 354 352 352 353 352 353 352 352 350 350 348 346 339 345 339 339 329 324
334 339 343 345 345 346 348 346 345 342 342 349 353 355 357 358 356 355 355 353 351 352 351 352 351 346 343 338 343 340 331 328

GFSFLT2_sfc_thetae_147.txt.gz
Theta_e
348 352 362 363 363 363 364 363 361 361 361 361 362 362 361 360 360 360 358 357 355 356 357 356 355 355 353 354 353 351 349 351
348 352 358 361 362 363 363 362 361 361 360 361 362 362 361 360 359 358 356 356 355 355 356 355 354 353 353 353 351 349 350 352
350 350 354 360 361 361 361 361 360 360 360 361 361 361 361 360 359 358 356 355 355 354 353 353 352 351 351 351 351 350 350 350
353 349 349 351 357 360 360 359 359 359 359 359 359 360 360 360 358 357 356 355 355 354 353 352 351 351 350 350 350 350 349 350
351 351 348 349 347 349 353 359 358 358 358 358 359 359 359 358 357 355 355 355 354 354 353 352 351 350 349 350 351 350 350 350
348 351 350 348 348 348 347 352 357 357 358 358 357 358 354 349 353 353 352 354 353 352 353 352 352 351 351 353 353 353 350 339
346 348 349 350 350 350 348 351 349 347 347 347 347 352 347 348 354 352 353 354 351 351 351 352 351 351 351 340 343 351 343 335
348 348 349 355 356 352 349 350 349 349 348 348 350 354 355 348 353 350 351 348 346 351 345 346 345 343 340 340 340 340 338 337
348 349 351 353 358 361 352 351 351 350 351 351 352 357 357 349 352 349 343 345 348 347 347 347 345 347 346 347 345 342 340 341
349 350 351 354 359 363 363 354 353 355 352 354 355 358 354 351 353 349 350 345 345 344 343 344 343 345 348 351 349 347 346 346
353 353 354 355 364 360 361 365 356 357 357 355 354 356 358 355 360 349 349 346 344 343 343 341 342 346 351 352 350 351 352 354
356 357 357 358 362 366 363 362 362 357 356 354 353 360 359 360 358 361 348 346 343 347 346 346 345 348 349 350 352 351 352 353
360 360 359 356 358 362 364 362 359 357 355 354 355 356 359 359 359 360 351 347 346 347 343 343 344 347 347 347 349 350 351 353
360 358 359 360 357 359 364 361 362 364 357 355 361 359 358 357 356 358 351 347 357 344 342 342 345 350 350 352 350 350 353 352
358 361 360 360 360 361 359 359 356 355 356 355 354 354 356 356 356 357 354 355 353 345 342 341 352 348 351 355 350 348 351 350
353 357 359 360 363 359 355 352 351 349 351 351 351 355 353 354 353 358 351 353 352 348 351 356 348 350 346 353 349 347 347 351
342 350 357 359 363 360 358 358 353 351 350 350 350 351 351 352 355 355 356 352 354 349 357 357 358 356 349 350 343 340 330 336
339 343 347 354 359 360 360 358 357 355 354 350 352 351 354 354 356 357 357 359 365 362 365 363 359 356 347 347 353 340 327 325
339 342 346 351 355 357 360 360 364 353 349 354 355 354 356 358 359 359 361 360 363 366 366 359 357 356 355 343 344 346 349 342